CW9687 Weather Reports


Display with metric or nautical units.
time (UTC)temp
F
wind
direction
speed
MPH
gust
MPH
rain 1hr
in
rain 24hr
in
rain mn
in
humidity
%
barometer
mb
20260505011014 62 316 5.0 13.0 0.00 0.00 0.00 66 1014.7
20260505010514 62 306 8.0 13.0 0.00 0.00 0.00 66 1014.8
20260505005554 62 301 6.0 11.0 0.00 0.00 0.00 66 1014.8
20260505005054 62 318 4.0 11.0 0.00 0.00 0.00 65 1014.7
20260505004554 62 317 4.0 13.0 0.00 0.00 0.00 64 1014.7
20260505004053 62 316 7.0 13.0 0.00 0.00 0.00 63 1014.6
20260505003555 62 311 7.0 15.0 0.00 0.00 0.00 62 1014.6
20260505003053 62 303 8.0 15.0 0.00 0.00 0.00 62 1014.8
20260505002551 63 291 5.0 15.0 0.00 0.00 0.00 64 1014.7
20260505002050 63 309 7.0 17.0 0.00 0.00 0.00 64 1014.7
20260505001550 63 327 7.0 17.0 0.00 0.00 0.00 63 1014.6
20260505001048 64 302 8.0 17.0 0.00 0.00 0.00 63 1014.6
20260505000548 64 270 6.0 15.0 0.00 0.00 0.00 63 1014.6
20260505000042 64 303 6.0 15.0 0.00 0.00 0.00 63 1014.7
20260504235542 64 324 3.0 11.0 0.00 0.00 0.00 62 1014.5
20260504235042 64 286 6.0 14.0 0.00 0.00 0.00 61 1014.5
20260504234543 64 314 8.0 14.0 0.00 0.00 0.00 60 1014.6
20260504234041 64 328 6.0 12.0 0.00 0.00 0.00 62 1014.5
20260504233542 64 281 6.0 16.0 0.00 0.00 0.00 61 1014.6
20260504233043 65 297 6.0 16.0 0.00 0.00 0.00 61 1014.6
20260504232540 65 316 7.0 16.0 0.00 0.00 0.00 61 1014.6
20260504232040 65 316 4.0 15.0 0.00 0.00 0.00 62 1014.7
20260504231542 65 289 8.0 15.0 0.00 0.00 0.00 61 1014.8
20260504231040 65 316 6.0 13.0 0.00 0.00 0.00 61 1014.9
20260504230540 65 305 6.0 17.0 0.00 0.00 0.00 60 1014.9
20260504230033 65 298 6.0 15.0 0.00 0.00 0.00 61 1014.9
20260504225633 66 348 3.0 15.0 0.00 0.00 0.00 63 1015.0
20260504225034 66 287 6.0 15.0 0.00 0.00 0.00 62 1015.0
20260504224532 66 298 8.0 15.0 0.00 0.00 0.00 61 1014.9
20260504224031 66 313 4.0 15.0 0.00 0.00 0.00 61 1015.0
20260504223531 66 331 5.0 15.0 0.00 0.00 0.00 61 1015.1
20260504223031 66 326 8.0 16.0 0.00 0.00 0.00 62 1015.1
20260504222531 66 306 8.0 16.0 0.00 0.00 0.00 61 1015.1
20260504222030 66 331 6.0 18.0 0.00 0.00 0.00 60 1015.2
20260504221530 66 309 9.0 18.0 0.00 0.00 0.00 60 1015.2
20260504221030 66 325 6.0 18.0 0.00 0.00 0.00 60 1015.1
20260504220531 67 306 8.0 16.0 0.00 0.00 0.00 58 1015.2
20260504220024 67 305 7.0 16.0 0.00 0.00 0.00 56 1015.2
20260504215522 67 326 7.0 16.0 0.00 0.00 0.00 57 1015.2
20260504215023 67 307 7.0 16.0 0.00 0.00 0.00 55 1015.3
20260504214521 67 296 8.0 18.0 0.00 0.00 0.00 57 1015.3
20260504214021 67 283 9.0 18.0 0.00 0.00 0.00 55 1015.4
20260504213521 67 306 7.0 18.0 0.00 0.00 0.00 55 1015.5
20260504213020 67 276 6.0 12.0 0.00 0.00 0.00 56 1015.5
20260504212520 67 315 7.0 14.0 0.00 0.00 0.00 56 1015.6
20260504212019 67 318 8.0 14.0 0.00 0.00 0.00 56 1015.5
20260504211517 66 322 6.0 17.0 0.00 0.00 0.00 57 1015.5
20260504211017 66 313 7.0 13.0 0.00 0.00 0.00 59 1015.5
20260504210516 66 321 6.0 13.0 0.00 0.00 0.00 61 1015.5
20260504210057 66 291 5.0 14.0 0.00 0.00 0.00 61 1015.6
20260504205557 66 295 6.0 13.0 0.00 0.00 0.00 61 1015.4
20260504205056 66 316 3.0 14.0 0.00 0.00 0.00 62 1015.4
20260504204556 66 327 6.0 18.0 0.00 0.00 0.00 62 1015.5
20260504204055 66 304 9.0 18.0 0.00 0.00 0.00 61 1015.5
20260504203555 66 278 7.0 12.0 0.00 0.00 0.00 61 1015.4
20260504203055 66 306 4.0 15.0 0.00 0.00 0.00 61 1015.5
20260504202554 66 287 6.0 15.0 0.00 0.00 0.00 59 1015.4
20260504202054 66 316 7.0 17.0 0.00 0.00 0.00 59 1015.4
20260504201553 66 293 9.0 17.0 0.00 0.00 0.00 60 1015.5
20260504201052 66 295 5.0 12.0 0.00 0.00 0.00 61 1015.5
20260504200552 65 283 5.0 13.0 0.00 0.00 0.00 62 1015.6
20260504200050 65 302 5.0 13.0 0.00 0.00 0.00 61 1015.6
20260504195545 65 304 4.0 15.0 0.00 0.00 0.00 60 1015.5
20260504195044 66 324 5.0 17.0 0.00 0.00 0.00 59 1015.6
20260504194547 66 313 5.0 17.0 0.00 0.00 0.00 60 1015.6
20260504194047 66 335 7.0 17.0 0.00 0.00 0.00 61 1015.5
20260504193543 66 300 7.0 15.0 0.00 0.00 0.00 62 1015.4
20260504193042 66 294 4.0 13.0 0.00 0.00 0.00 61 1015.4
20260504192541 66 319 6.0 11.0 0.00 0.00 0.00 61 1015.5
20260504192040 66 274 3.0 15.0 0.00 0.00 0.00 62 1015.4
20260504191552 66 310 7.0 15.0 0.00 0.00 0.00 62 1015.5
20260504191038 66 285 4.0 18.0 0.00 0.00 0.00 63 1015.5
20260504190539 66 304 8.0 18.0 0.00 0.00 0.00 62 1015.5
20260504190031 66 321 8.0 16.0 0.00 0.00 0.00 62 1015.6
20260504185529 66 288 8.0 14.0 0.00 0.00 0.00 62 1015.5
20260504185027 66 293 6.0 13.0 0.00 0.00 0.00 61 1015.4
20260504184531 66 292 5.0 13.0 0.00 0.00 0.00 61 1015.4
20260504184026 66 281 6.0 13.0 0.00 0.00 0.00 62 1015.5
20260504183524 65 279 4.0 10.0 0.00 0.00 0.00 61 1015.4
20260504183036 65 303 4.0 10.0 0.00 0.00 0.00 61 1015.4
20260504182522 65 313 5.0 9.0 0.00 0.00 0.00 62 1015.5
20260504182022 65 305 3.0 9.0 0.00 0.00 0.00 63 1015.6
20260504181525 65 275 4.0 11.0 0.00 0.00 0.00 63 1015.6
20260504181020 65 335 3.0 12.0 0.00 0.00 0.00 64 1015.6
20260504180518 64 308 6.0 12.0 0.00 0.00 0.00 64 1015.6
20260504180058 64 302 3.0 10.0 0.00 0.00 0.00 64 1015.7
20260504175556 64 333 6.0 10.0 0.00 0.00 0.00 65 1015.7
20260504175056 63 300 2.0 9.0 0.00 0.00 0.00 65 1015.7
20260504174604 63 316 2.0 9.0 0.00 0.00 0.00 66 1015.7
20260504174057 63 309 2.0 9.0 0.00 0.00 0.00 65 1015.7
20260504173554 63 354 2.0 9.0 0.00 0.00 0.00 65 1015.7
20260504173102 63 287 5.0 9.0 0.00 0.00 0.00 64 1015.6
20260504172553 64 318 4.0 9.0 0.00 0.00 0.00 64 1015.6
20260504172054 65 360 4.0 9.0 0.00 0.00 0.00 64 1015.5
20260504171552 64 37 2.0 5.0 0.00 0.00 0.00 64 1015.7
20260504171050 64 357 0.0 3.0 0.00 0.00 0.00 64 1015.6
20260504170550 63 325 0.0 4.0 0.00 0.00 0.00 65 1015.6
20260504151051 51 127 4.0 9.0 0.00 0.00 0.00 80 1015.7
20260504150552 51 103 4.0 9.0 0.00 0.00 0.00 81 1015.5
20260504141024 49 120 5.0 10.0 0.00 0.00 0.00 82 1015.3
20260504140523 49 108 5.0 10.0 0.00 0.00 0.00 82 1015.3
20260504130508 48 95 6.0 10.0 0.00 0.00 0.00 82 1015.0
20260504110555 49 98 6.0 8.0 0.00 0.00 0.00 82 1015.2
20260504100547 49 100 5.0 9.0 0.00 0.00 0.00 82 1015.1
20260504081536 49 100 0.0 0.0 0.00 0.00 0.00 82 1015.9
20260504081034 49 100 0.0 0.0 0.00 0.00 0.00 82 1016.0
20260504080535 49 100 0.0 1.0 0.00 0.00 0.00 82 1016.0
20260504050510 53 89 1.0 3.0 0.00 0.00 0.00 76 1016.0
20260504045554 53 89 0.0 0.0 0.00 0.00 0.00 75 1015.7
20260504045053 53 89 0.0 0.0 0.00 0.00 0.00 75 1015.6
20260504044559 53 89 0.0 1.0 0.00 0.00 0.00 74 1015.7
20260504044052 53 89 0.0 1.0 0.00 0.00 0.00 74 1015.7
20260504043552 53 89 0.0 2.0 0.00 0.00 0.00 74 1015.8
20260504043053 53 89 0.0 2.0 0.00 0.00 0.00 73 1015.6
20260504042550 54 350 0.0 2.0 0.00 0.00 0.00 73 1015.4
20260504042053 54 350 0.0 1.0 0.00 0.00 0.00 73 1015.5
20260504041549 54 350 0.0 0.0 0.00 0.00 0.00 73 1015.3
20260504041048 54 350 0.0 0.0 0.00 0.00 0.00 73 1015.3
20260504040548 54 350 0.0 1.0 0.00 0.00 0.00 73 1015.2
20260504040132 55 350 0.0 1.0 0.00 0.00 0.00 73 1015.2
20260504035532 55 350 0.0 1.0 0.00 0.00 0.00 73 1015.1
20260504035031 55 350 0.0 1.0 0.00 0.00 0.00 73 1015.1
20260504034551 55 349 0.0 1.0 0.00 0.00 0.00 72 1015.0
20260504034031 55 349 0.0 1.0 0.00 0.00 0.00 73 1014.9
20260504033529 56 349 0.0 2.0 0.00 0.00 0.00 73 1014.9
20260504033028 56 349 0.0 2.0 0.00 0.00 0.00 73 1014.7
20260504032528 56 349 0.0 3.0 0.00 0.00 0.00 72 1014.8
20260504032029 56 349 0.0 5.0 0.00 0.00 0.00 72 1014.8
20260504031528 56 349 0.0 6.0 0.00 0.00 0.00 72 1014.7
20260504031027 56 349 1.0 6.0 0.00 0.00 0.00 72 1014.8
20260504030527 57 335 2.0 7.0 0.00 0.00 0.00 72 1014.8
20260504030037 57 335 2.0 8.0 0.00 0.00 0.00 71 1014.7
20260504025521 57 288 2.0 9.0 0.00 0.00 0.00 71 1014.6
20260504025023 57 341 3.0 9.0 0.00 0.00 0.00 70 1014.5
20260504024521 57 283 2.0 10.0 0.00 0.00 0.00 70 1014.5
20260504024020 57 304 1.0 12.0 0.00 0.00 0.00 70 1014.6
20260504023520 58 321 5.0 12.0 0.00 0.00 0.00 69 1014.6
20260504023022 58 306 2.0 11.0 0.00 0.00 0.00 69 1014.6
20260504022520 58 310 5.0 11.0 0.00 0.00 0.00 69 1014.4
20260504022018 58 303 4.0 10.0 0.00 0.00 0.00 69 1014.4
20260504021519 58 328 2.0 14.0 0.00 0.00 0.00 68 1014.5
20260504021018 58 293 3.0 14.0 0.00 0.00 0.00 68 1014.4
20260504020518 59 268 1.0 12.0 0.00 0.00 0.00 68 1014.4
20260504020014 59 310 3.0 12.0 0.00 0.00 0.00 68 1014.3
20260504015513 59 305 5.0 12.0 0.00 0.00 0.00 67 1014.3
20260504015014 59 310 5.0 12.0 0.00 0.00 0.00 67 1014.3
20260504014530 59 329 6.0 16.0 0.00 0.00 0.00 66 1014.2
20260504014013 60 316 6.0 16.0 0.00 0.00 0.00 66 1014.1
20260504013512 60 310 6.0 16.0 0.00 0.00 0.00 66 1014.1
20260504013011 60 316 7.0 20.0 0.00 0.00 0.00 65 1014.1
20260504012512 60 311 8.0 20.0 0.00 0.00 0.00 66 1014.1
20260504012010 60 329 3.0 12.0 0.00 0.00 0.00 66 1014.2
20260504011509 60 293 6.0 15.0 0.00 0.00 0.00 66 1014.0